Stuttgart, AR

11:53 PM CDT on October 16, 2017 (GMT -0500)
Stuttgart Municipal

Weather History for KSGT - November, 2013

Change the Weather History Date:

Monday, November 18, 2013

  Actual Average Record
Temperature  
Mean Temperature 55 °F -  
Max Temperature 66 °F 58 °F 77 °F (2016)
Min Temperature 44 °F 42 °F 19 °F (2014)
Degree Days  
Heating Degree Days 10    
Growing Degree Days 5 (Base 50)    
Moisture  
Dew Point 35 °F    
Average Humidity 52    
Maximum Humidity 76    
Minimum Humidity 30    
Precipitation  
Precipitation 0.00 in - - ()
Sea Level Pressure  
Sea Level Pressure 30.18 in    
Wind  
Wind Speed 9 mph (North)    
Max Wind Speed 18 mph    
Max Gust Speed 23 mph    
Visibility 10 miles    
Events      
Averages and records for this station are not official NWS values.
T = Trace of Precipitation, MM = Missing Value Source: NWS Daily Summary

Daily Weather History Graph

Daily Weather History Graph

Search for Another Location

Airport or City:

Trip Planner

Search our weather history database for the weather conditions in past years. The results will help you decide how hot, cold, wet, or windy it might be!

Date:

Astronomy

Nov. 18, 2013 Rise Set
Actual Time 6:43 AM CST 4:59 PM CST
Civil Twilight 6:16 AM CST 5:26 PM CST
Nautical Twilight 5:45 AM CST 5:57 PM CST
Astronomical Twilight 5:15 AM CST 6:27 PM CST
Moon 6:02 PM CST (11/18) 7:31 AM CST (11/18)
Length of Visible Light 11h 10m
Length of Day
10h 16m
Full, 99% of the Moon is Illuminated
Nov 18
Full
Nov 25
Last Quarter
Dec 2
New
Dec 9
First Quarter
Dec 17
Full

Hourly Weather History & Observations

Time (CST) Temp. Windchill Dew Point Humidity Pressure Visibility Wind Dir Wind Speed Gust Speed Precip Events Conditions
12:15 AM 55.4 °F - 39.2 °F 54% 30.04 in 10.0 mi NNW 6.9 mph - N/A   Unknown
12:35 AM 55.4 °F - 39.2 °F 54% 30.04 in 10.0 mi North 6.9 mph - N/A   Unknown
12:55 AM 55.4 °F - 41.0 °F 58% 30.05 in 10.0 mi North 6.9 mph - N/A   Unknown
1:15 AM 53.6 °F - 39.2 °F 58% 30.05 in 10.0 mi North 8.1 mph - N/A   Unknown
1:35 AM 51.8 °F - 39.2 °F 62% 30.06 in 10.0 mi North 8.1 mph - N/A   Unknown
1:55 AM 51.8 °F - 39.2 °F 62% 30.06 in 10.0 mi North 8.1 mph - N/A   Unknown
2:15 AM 51.8 °F - 37.4 °F 58% 30.07 in 10.0 mi North 6.9 mph - N/A   Unknown
2:35 AM 51.8 °F - 37.4 °F 58% 30.08 in 10.0 mi North 3.5 mph - N/A   Unknown
2:55 AM 51.8 °F - 35.6 °F 54% 30.09 in 10.0 mi North 4.6 mph - N/A   Unknown
3:15 AM 48.2 °F - 35.6 °F 62% 30.09 in 10.0 mi NNW 9.2 mph - N/A   Unknown
3:35 AM 48.2 °F - 35.6 °F 62% 30.09 in 10.0 mi North 8.1 mph - N/A   Unknown
3:55 AM 48.2 °F - 33.8 °F 58% 30.10 in 10.0 mi NNW 10.4 mph - N/A   Unknown
4:15 AM 46.4 °F 41.9 °F 33.8 °F 62% 30.09 in 10.0 mi NNW 9.2 mph - N/A   Unknown
4:35 AM 46.4 °F 41.5 °F 33.8 °F 62% 30.09 in 10.0 mi North 10.4 mph - N/A   Unknown
4:55 AM 46.4 °F 41.9 °F 33.8 °F 62% 30.09 in 10.0 mi North 9.2 mph - N/A   Unknown
5:15 AM 46.4 °F 43.5 °F 33.8 °F 62% 30.09 in 10.0 mi NNW 5.8 mph - N/A   Unknown
5:35 AM 44.6 °F 39.2 °F 33.8 °F 66% 30.11 in 10.0 mi NNW 10.4 mph - N/A   Unknown
5:55 AM 46.4 °F 41.9 °F 32.0 °F 57% 30.12 in 10.0 mi NNW 9.2 mph - N/A   Unknown
6:15 AM 44.6 °F 39.7 °F 33.8 °F 66% 30.13 in 10.0 mi NW 9.2 mph - N/A   Unknown
6:35 AM 46.4 °F 41.1 °F 33.8 °F 62% 30.14 in 10.0 mi NNW 11.5 mph - N/A   Unknown
6:55 AM 46.4 °F 41.5 °F 33.8 °F 62% 30.15 in 10.0 mi NW 10.4 mph - N/A   Unknown
7:15 AM 48.2 °F - 33.8 °F 58% 30.16 in 10.0 mi NNW 10.4 mph - N/A   Unknown
7:35 AM 48.2 °F - 35.6 °F 62% 30.17 in 10.0 mi NNW 9.2 mph - N/A   Unknown
7:55 AM 51.8 °F - 35.6 °F 54% 30.18 in 10.0 mi North 6.9 mph - N/A   Unknown
8:15 AM 51.8 °F - 35.6 °F 54% 30.19 in 10.0 mi North 9.2 mph - N/A   Unknown
8:35 AM 53.6 °F - 35.6 °F 51% 30.19 in 10.0 mi North 11.5 mph - N/A   Unknown
8:55 AM 55.4 °F - 35.6 °F 47% 30.20 in 10.0 mi North 15.0 mph - N/A   Unknown
9:15 AM 57.2 °F - 37.4 °F 48% 30.20 in 10.0 mi North 13.8 mph - N/A   Unknown
9:35 AM 57.2 °F - 37.4 °F 48% 30.21 in 10.0 mi North 13.8 mph - N/A   Unknown
9:55 AM 60.8 °F - 37.4 °F 42% 30.22 in 10.0 mi North 12.7 mph - N/A   Unknown
10:15 AM 60.8 °F - 35.6 °F 39% 30.22 in 10.0 mi North 12.7 mph - N/A   Unknown
10:35 AM 62.6 °F - 35.6 °F 37% 30.22 in 10.0 mi North 13.8 mph - N/A   Unknown
10:55 AM 62.6 °F - 35.6 °F 37% 30.22 in 10.0 mi NNE 10.4 mph - N/A   Unknown
11:15 AM 64.4 °F - 35.6 °F 34% 30.21 in 10.0 mi North 12.7 mph 16.1 mph N/A   Unknown
11:35 AM 64.4 °F - 35.6 °F 34% 30.21 in 10.0 mi North 15.0 mph 19.6 mph N/A   Unknown
11:55 AM 64.4 °F - 35.6 °F 34% 30.21 in 10.0 mi NNE 16.1 mph 21.9 mph N/A   Unknown
12:15 PM 64.4 °F - 35.6 °F 34% 30.21 in 10.0 mi North 16.1 mph 23.0 mph N/A   Unknown
12:35 PM 64.4 °F - 35.6 °F 34% 30.21 in 10.0 mi North 17.3 mph - N/A   Unknown
12:55 PM 66.2 °F - 35.6 °F 32% 30.20 in 10.0 mi NNE 16.1 mph 19.6 mph N/A   Unknown
1:15 PM 64.4 °F - 35.6 °F 34% 30.20 in 10.0 mi NNE 16.1 mph 20.7 mph N/A   Unknown
1:35 PM 64.4 °F - 35.6 °F 34% 30.20 in 10.0 mi NNE 17.3 mph - N/A   Unknown
1:55 PM 64.4 °F - 35.6 °F 34% 30.20 in 10.0 mi NNE 15.0 mph 21.9 mph N/A   Unknown
2:15 PM 64.4 °F - 35.6 °F 34% 30.19 in 10.0 mi North 18.4 mph - N/A   Unknown
2:35 PM 64.4 °F - 33.8 °F 32% 30.20 in 10.0 mi North 17.3 mph - N/A   Unknown
2:55 PM 64.4 °F - 33.8 °F 32% 30.20 in 10.0 mi North 13.8 mph - N/A   Unknown
3:15 PM 62.6 °F - 35.6 °F 37% 30.20 in 10.0 mi North 16.1 mph - N/A   Unknown
3:35 PM 62.6 °F - 33.8 °F 34% 30.21 in 10.0 mi NNE 10.4 mph - N/A   Unknown
3:55 PM 62.6 °F - 33.8 °F 34% 30.21 in 10.0 mi NNE 9.2 mph - N/A   Unknown
4:15 PM 62.6 °F - 30.2 °F 30% 30.22 in 10.0 mi NNE 15.0 mph - N/A   Unknown
4:35 PM 60.8 °F - 32.0 °F 34% 30.22 in 10.0 mi NE 10.4 mph - N/A   Unknown
4:55 PM 57.2 °F - 33.8 °F 41% 30.22 in 10.0 mi NE 9.2 mph - N/A   Unknown
5:15 PM 55.4 °F - 33.8 °F 44% 30.23 in 10.0 mi ENE 8.1 mph - N/A   Unknown
5:35 PM 53.6 °F - 33.8 °F 47% 30.23 in 10.0 mi NE 6.9 mph - N/A   Unknown
5:55 PM 53.6 °F - 35.6 °F 51% 30.23 in 10.0 mi NE 6.9 mph - N/A   Unknown
6:15 PM 55.4 °F - 33.8 °F 44% 30.23 in 10.0 mi ENE 4.6 mph - N/A   Unknown
6:35 PM 53.6 °F - 33.8 °F 47% 30.24 in 10.0 mi ENE 3.5 mph - N/A   Unknown
6:55 PM 53.6 °F - 35.6 °F 51% 30.24 in 10.0 mi NE 5.8 mph - N/A   Unknown
7:15 PM 50.0 °F - 35.6 °F 58% 30.25 in 10.0 mi NE 4.6 mph - N/A   Unknown
7:35 PM 48.2 °F - 35.6 °F 62% 30.25 in 10.0 mi NNE 4.6 mph - N/A   Unknown
7:55 PM 48.2 °F - 35.6 °F 62% 30.25 in 10.0 mi North 5.8 mph - N/A   Unknown
8:15 PM 46.4 °F 42.9 °F 37.4 °F 71% 30.25 in 10.0 mi North 6.9 mph - N/A   Unknown
8:35 PM 46.4 °F 42.9 °F 37.4 °F 71% 30.25 in 10.0 mi North 6.9 mph - N/A   Unknown
8:55 PM 46.4 °F 43.5 °F 37.4 °F 71% 30.26 in 10.0 mi North 5.8 mph - N/A   Unknown
9:15 PM 46.4 °F 42.9 °F 37.4 °F 71% 30.26 in 10.0 mi North 6.9 mph - N/A   Unknown
9:35 PM 44.6 °F 40.2 °F 37.4 °F 76% 30.26 in 10.0 mi North 8.1 mph - N/A   Unknown
9:55 PM 44.6 °F 41.4 °F 35.6 °F 71% 30.26 in 10.0 mi North 5.8 mph - N/A   Unknown
10:15 PM 44.6 °F 39.2 °F 35.6 °F 71% 30.25 in 10.0 mi NNE 10.4 mph - N/A   Unknown
10:35 PM 46.4 °F 41.5 °F 35.6 °F 66% 30.26 in 10.0 mi NNE 10.4 mph - N/A   Unknown
10:55 PM 48.2 °F - 35.6 °F 62% 30.25 in 10.0 mi NE 10.4 mph - N/A   Unknown
11:15 PM 48.2 °F - 35.6 °F 62% 30.25 in 10.0 mi NE 9.2 mph - N/A   Unknown
11:35 PM 48.2 °F - 33.8 °F 58% 30.25 in 10.0 mi NE 10.4 mph - N/A   Unknown
11:55 PM 48.2 °F - 33.8 °F 58% 30.25 in 10.0 mi NE 8.1 mph - N/A   Unknown